Regional Weather Roundup
Issued by NWS New Orleans/Baton Rouge, LA

Home | Current Version | Previous Version | Graphics & Text | Print | Product List | Glossary On
Versions: 1 2 3 4 5 6 7 8 9 10 11 12 13 14 15 16 17 18 19 20 21 22 23 24 25 26 27 28 29 30 31 32 33 34 35 36 37 38 39 40 41 42 43 44 45 46 47 48 49 50
243
ASUS44 KLIX 191812
RWRLIX
NEW ORLEANS REGIONAL WEATHER ROUNDUP
NATIONAL WEATHER SERVICE NEW ORLEANS LA
100 PM CDT SUN OCT 19 2014

NOTE: "FAIR" INDICATES FEW OR NO CLOUDS BELOW 12,000 FEET WITH NO
      SIGNIFICANT WEATHER AND/OR OBSTRUCTIONS TO VISIBILITY.
      SKY/WX - SKY CONDITION AND SIGNIFICANT WEATHER.
      TMP - AIR TEMPERATURE.     DP    - DEWPOINT TEMPERATURE.
      RH  - RELATIVE HUMIDITY.   PRES  - PRESSURE.
      HI  - HEAT INDEX.          WCI   - WIND CHILL INDEX.

*  THESE STATIONS ARE NOT NWS OR FAA STATIONS AND ARE NOT UNDER
   NWS QUALITY CONTROL.

LAZ038-040-048-061>063-065>067-069-191900-
SOUTHEAST LOUISIANA

CITY           SKY/WX    TMP DP  RH WIND       PRES   REMARKS
N.O. AUDUBON     N/A     76  60  57 MISG        N/A
6HR MIN TEMP:  64; 6HR MAX TEMP:  76;

N.O. INTL ARPT MOSUNNY   74  56  53 NE10      30.09F
6HR MIN TEMP:  64; 6HR MAX TEMP:  75;

N.O. LAKEFRONT SUNNY     74  55  51 E9        30.10F
6HR MIN TEMP:  64; 6HR MAX TEMP:  74;

N.O. DOWNTOWN*   N/A     72  54  53 NE8       30.10F
6HR MIN TEMP:  63; 6HR MAX TEMP:  72;

SLIDELL        SUNNY     73  54  51 VRB6      30.10F
6HR MIN TEMP:  56; 6HR MAX TEMP:  73;

BATON ROUGE    SUNNY     74  54  49 VRB6      30.11F
6HR MIN TEMP:  55; 6HR MAX TEMP:  74;

BOOTHVILLE     MOSUNNY   75  64  68 E12       30.08F
6HR MIN TEMP:  72; 6HR MAX TEMP:  76;

BELLE CHASSE   MOSUNNY   75  58  55 NE12      30.09F
6HR MIN TEMP:  62; 6HR MAX TEMP:  75;

BOGALUSA*        N/A     73  49  42 N5        30.13F
6HR MIN TEMP:  51; 6HR MAX TEMP:  73;

NEW ROADS*       N/A     72  52  49 CALM      30.11F
6HR MIN TEMP:  56; 6HR MAX TEMP:  72;

GONZALES*        N/A     73  56  54 NE6       30.10F
6HR MIN TEMP:  58; 6HR MAX TEMP:  74;

HAMMOND*       SUNNY     75  50  41 CALM      30.12F
HOUMA*         MOSUNNY   75  63  64 E12       30.08F
PORT FOURCHON* PTCLDY    77  64  65 E12G17    30.11F

$$

MSZ070-080>082-191900-
SOUTHERN MISSISSIPPI

CITY           SKY/WX    TMP DP  RH WIND       PRES   REMARKS
MCCOMB         SUNNY     69  47  45 VRB3      30.13F
6HR MIN TEMP:  53; 6HR MAX TEMP:  69;

GULFPORT       SUNNY     73  49  42 VRB6      30.09F
6HR MIN TEMP:  57; 6HR MAX TEMP:  73;

BILOXI         SUNNY     73  50  44 VRB5      30.09F
6HR MIN TEMP:  56; 6HR MAX TEMP:  73;

PASCAGOULA     SUNNY     74  50  42 N8        30.09F
6HR MIN TEMP:  54; 6HR MAX TEMP:  74;

STENNIS ARPT*  SUNNY     73  48  40 N6        30.11F

$$

COASTAL OBSERVATIONS
LAKE AND NEARSHORE STATIONS

STATION/POSITION TIME  TEMP    WIND        PRES    WAVE
                       AIR SEA DIR/SP/G            HT/PER
                 (UTC) (F)     (DEG/KT/KT) (MB)    (FT/S)
PASCAGOULA       1800   72      30/  5/  9 1018.6
WAVELAND YACHT   1800   69     160/  3/  6 1018.7
GRAND ISLE       1800   74 78   60/ 12/ 15 1019.1
SOUTHWEST PASS   1800   81 85              1018.4
NEW CANAL        1800   70 72   60/ 12/ 15 1019.5
SHELL BEACH      1800   70 69   60/ 12/ 15 1019.1

OFFSHORE STATIONS

STATION/POSITION TIME  TEMP    WIND        PRES    WAVE
                       AIR SEA DIR/SP/G            HT/PER
                 (UTC) (F)     (DEG/KT/KT) (MB)    (FT/S)
64 S DAUPHIN ISL 1750   73 80   80/ 14/ 17 1018.8    4/ 6

$$




USA.gov is the U.S. government's official web portal to all federal, state and local government web resources and services.